Content
SEND FEEDBACK

Daily
Averages
Monthly
Summary
United States of America

ST. CROIX FALLS, WISCONSIN


Home > North America > United States > Wisconsin
Elevation: 295 meters     Latitude: 45 25N     Longitude: 092 39W

WEATHER
 
SELECT A DAY
Number of Records: 407,950;   Date Range: 5/11/98 - 12/16/14
 
SHARE

PRINT THIS DATA

[ ← Previous Day ]
WEATHER ALMANAC - 13 FEBRUARY, 2013
[ Next Day → ]
[ °F ]   °C
Weather ElementAverageHighLow
Temperature-2.2 °C2 °C (1:55 pm)-8 °C (2:55 am)
Dewpoint-4.1 °C0 °C (7:15 pm)-9 °C (2:55 am)
Humidity87.6 %100 % (7:15 pm)70 % (2:15 pm)
Barometer1005.4 hPa1009.1 hPa (12:35 am)1002 hPa (9:55 pm)
Wind Speed5.3 km/h14.8 km/h (12:15 pm)
Weather ElementAverage
Visibility13 km
Wind DirectionESE (125.9 °)

Weather ElementTotal
Precipitation1.02 mm
Heating Degree Days21.3 (Base 18.3)
Averaged from 70 records on 13 February, 2013
WEATHER CONDITIONS BREAKOUT
WIND DIRECTION BREAKOUT
WEATHER BY HOUR - 13 FEBRUARY, 2013
[ °F ]   °C
Local TimeTemperatureDewpointHumidityBarometerVisibilityWind DirectionWind SpeedGust SpeedPrecipitationEventsConditions
12:35 AM-4 °C-7 °C80 %1009.1 hPa16.1 kmWSW (240°)5.6 km/hOvercast
12:55 AM-4 °C-7 °C80 %1008.8 hPa16.1 kmWSW (250°)5.6 km/hOvercast
1:15 AM-5 °C-7 °C86 %1008.8 hPa16.1 kmWSW (250°)5.6 km/hOvercast
1:35 AM-5 °C-7 °C86 %1008.8 hPa16.1 kmWSW (250°)7.4 km/hScattered Clouds
1:55 AM-6 °C-7 °C93 %1008.8 hPa16.1 kmSW (230°)5.6 km/hScattered Clouds
2:15 AM-6 °C-7 °C93 %1008.5 hPa16.1 kmSSW (210°)5.6 km/hOvercast
2:35 AM-6 °C-8 °C86 %1008.5 hPa16.1 kmSW (230°)7.4 km/hScattered Clouds
2:55 AM-8 °C-9 °C93 %1008.5 hPa16.1 kmSW (230°)7.4 km/hScattered Clouds
3:15 AM-7 °C-8 °C93 %1008.1 hPa16.1 kmSW (230°)5.6 km/hOvercast
3:35 AM-6 °C-7 °C93 %1008.1 hPa16.1 kmCalmOvercast
3:55 AM-6 °C-8 °C86 %1008.1 hPa16.1 kmWSW (250°)5.6 km/hOvercast
4:15 AM-6 °C-7 °C93 %1007.8 hPa16.1 kmCalmOvercast
4:35 AM-6 °C-8 °C86 %1007.8 hPa16.1 kmWSW (250°)7.4 km/hOvercast
4:55 AM-6 °C-7 °C93 %1007.8 hPa16.1 kmCalmOvercast
5:15 AM-6 °C-8 °C86 %1007.8 hPa16.1 kmCalmOvercast
5:35 AM-6 °C-7 °C93 %1007.8 hPa16.1 kmCalmOvercast
5:55 AM-6 °C-7 °C93 %1007.8 hPa16.1 kmWSW (250°)7.4 km/hOvercast
6:15 AM-6 °C-7 °C93 %1007.5 hPa16.1 kmCalmOvercast
6:35 AM-5 °C-7 °C86 %1007.1 hPa16.1 kmCalmOvercast
6:55 AM-5 °C-7 °C86 %1007.1 hPa16.1 kmCalmOvercast
7:15 AM-6 °C-7 °C93 %1006.8 hPa16.1 kmCalmMostly Cloudy
7:35 AM-7 °C-8 °C93 %1007.1 hPa16.1 kmCalmMostly Cloudy
7:55 AM-6 °C-7 °C93 %1007.1 hPa11.3 kmCalmOvercast
8:15 AM-5 °C-7 °C86 %1007.1 hPa16.1 kmCalmOvercast
8:35 AM-5 °C-6 °C93 %1006.8 hPa16.1 kmSW (220°)5.6 km/hMostly Cloudy
8:55 AM-4 °C-6 °C86 %1006.4 hPa16.1 kmSSW (210°)9.3 km/hMostly Cloudy
9:15 AM-4 °C-6 °C86 %1006.4 hPa16.1 kmCalmOvercast
9:35 AM-3 °C-6 °C80 %1006.4 hPa16.1 kmSSW (210°)9.3 km/hOvercast
9:55 AM-3 °C-6 °C80 %1006.4 hPa16.1 kmSW (220°)9.3 km/hMostly Cloudy
10:15 AM-3 °C-6 °C80 %1006.4 hPa16.1 kmSouth (190°)5.6 km/hOvercast
10:35 AM-2 °C-5 °C80 %1006.4 hPa16.1 kmCalmOvercast
10:55 AM-2 °C-5 °C80 %1006.4 hPa16.1 kmSSW (210°)7.4 km/hMostly Cloudy
11:15 AM-1 °C-5 °C75 %1006.4 hPa16.1 kmSW (220°)7.4 km/hMostly Cloudy
11:35 AM-1 °C-5 °C75 %1006.4 hPa16.1 kmSW (220°)9.3 km/hOvercast
11:55 AM0 °C-4 °C75 %1006.1 hPa16.1 kmSW (220°)13 km/hOvercast
12:15 PM0 °C-4 °C75 %1006.1 hPa16.1 kmSW (230°)14.8 km/hOvercast
12:35 PM0 °C-4 °C75 %1005.4 hPa16.1 kmSSW (210°)9.3 km/hOvercast
12:55 PM0 °C-3 °C80 %1005.1 hPa16.1 kmSW (230°)7.4 km/hOvercast
1:15 PM0 °C-3 °C80 %1005.1 hPa16.1 kmCalmMostly Cloudy
1:35 PM1 °C-3 °C75 %1004.7 hPa16.1 kmCalm0.51 mmClear
1:55 PM2 °C-2 °C75 %1004.4 hPa16.1 kmSSE (150°)5.6 km/h0.51 mmClear
2:15 PM2 °C-3 °C70 %1004.1 hPa16.1 kmSouth (180°)5.6 km/hClear
2:35 PM1 °C-2 °C81 %1004.1 hPa16.1 kmSSE (150°)9.3 km/hClear
2:55 PM1 °C-3 °C75 %1004.1 hPa16.1 kmSSE (150°)9.3 km/hClear
3:15 PM1 °C-2 °C81 %1003.7 hPa16.1 kmSSE (160°)5.6 km/hClear
3:55 PM2 °C-2 °C75 %1003.7 hPa16.1 kmSouth (170°)7.4 km/hMostly Cloudy
4:15 PM1 °C-2 °C81 %1004.1 hPa16.1 kmSSE (160°)7.4 km/hMostly Cloudy
4:35 PM1 °C-2 °C81 %1003.7 hPa16.1 kmSouth (170°)7.4 km/hOvercast
4:55 PM1 °C-2 °C81 %1003.7 hPa16.1 kmSSE (160°)11.1 km/hOvercast
5:15 PM1 °C-2 °C81 %1003.7 hPa16.1 kmSSE (160°)7.4 km/hOvercast
5:35 PM1 °C-2 °C81 %1003.7 hPa16.1 kmSSE (150°)7.4 km/hOvercast
5:55 PM1 °C-2 °C81 %1003.7 hPa16.1 kmSSE (150°)5.6 km/hOvercast
6:15 PM0 °C-1 °C93 %1003.7 hPa16.1 kmSSE (160°)5.6 km/hOvercast
6:35 PM1 °C-1 °C87 %1003.7 hPa16.1 kmSouth (170°)7.4 km/hOvercast
6:55 PM0 °C-1 °C93 %1003.7 hPa6.4 kmSSE (150°)5.6 km/hSnowLight Snow
7:15 PM0 °C0 °C100 %1003.7 hPa3.2 kmCalmSnowLight Snow
7:35 PM0 °C0 °C100 %1003.7 hPa3.2 kmCalmSnowLight Snow
7:55 PM0 °C0 °C100 %1003.4 hPa3.2 kmESE (110°)7.4 km/hSnowLight Snow
8:15 PM0 °C0 °C100 %1003 hPa3.2 kmEast (90°)5.6 km/hSnowLight Snow
8:35 PM0 °C0 °C100 %1002.7 hPa2.9 kmEast (80°)5.6 km/hSnowLight Snow
8:55 PM0 °C0 °C100 %1002.7 hPa2.4 kmENE (70°)5.6 km/hSnowLight Snow
9:15 PM0 °C0 °C100 %1002.4 hPa2.9 kmNE (50°)5.6 km/hSnowLight Snow
9:35 PM0 °C0 °C100 %1002.4 hPa2.9 kmNE (50°)7.4 km/hSnowLight Snow
9:55 PM0 °C0 °C100 %1002 hPa2.9 kmNE (40°)7.4 km/hSnowLight Snow
10:15 PM0 °C0 °C100 %1002 hPa3.2 kmNNE (30°)5.6 km/hSnowLight Snow
10:35 PM0 °C0 °C100 %1002 hPa2.4 kmNNE (30°)7.4 km/hSnowLight Snow
10:55 PM0 °C0 °C100 %1002 hPa1.9 kmNNE (20°)5.6 km/hSnowLight Snow
11:15 PM0 °C0 °C100 %1002.4 hPa1.9 kmNNE (30°)7.4 km/hSnowLight Snow
11:35 PM0 °C0 °C100 %1002.4 hPa1.6 kmCalmSnowLight Snow
11:55 PM0 °C0 °C100 %1002.7 hPa2.9 kmNorth (360°)5.6 km/hSnowLight Snow
Hourly data recorded from KOEO, located 0 kilometers away from St. Croix Falls, Wisconsin







STORIES FROM OUR PARTNERS